Regional Weather Roundup
Issued by NWS

Home | Current Version | Previous Version | Graphics & Text | Print | Product List | Glossary On
Versions: 1 2 3 4 5 6 7 8 9 10 11 12 13 14 15 16 17 18 19 20 21 22 23 24 25 26 27 28 29 30 31 32 33 34 35 36 37 38 39 40 41 42 43 44 45 46 47 48 49 50
000
ASUS43 KBIS 282102
RWRND

NORTH DAKOTA REGIONAL WEATHER ROUNDUP
NATIONAL WEATHER SERVICE BISMARCK ND
400 PM CDT SAT MAY 28 2016

NOTE: "FAIR" INDICATES FEW OR NO CLOUDS BELOW 12,000 FEET WITH NO
SIGNIFICANT WEATHER AND/OR OBSTRUCTIONS TO VISIBILITY.


NDZ001>003-009>011-017-282200-
NORTHWEST NORTH DAKOTA

CITY           SKY/WX    TMP DP  RH WIND       PRES   REMARKS
WILLISTON      LGT RAIN  61  55  81 E8        29.87R
MINOT          CLOUDY    68  53  58 CALM      29.88S
MINOT AFB      CLOUDY    64  53  67 VRB3      29.87S
$$

NDZ018>021-031>035-040>046-282200-
SOUTHWEST NORTH DAKOTA

CITY           SKY/WX    TMP DP  RH WIND       PRES   REMARKS
BISMARCK       CLOUDY    66  57  72 E6        29.86F
DICKINSON      LGT RAIN  58  52  80 W3        29.88S
GARRISON         N/A     68  52  56 NE7       29.87S
HETTINGER ARPT LGT RAIN  56  54  93 W6        29.93R FOG
$$

NDZ004>008-012>016-024-026-027-054-282200-
NORTHEAST NORTH DAKOTA

CITY           SKY/WX    TMP DP  RH WIND       PRES   REMARKS
GRAND FORKS    LGT RAIN  66  57  72 E16       29.81S
GRND FRKS AFB  CLOUDY    69  57  63 N8        29.82S
DEVILS LAKE    PTSUNNY   67  57  70 NW8       29.86S
$$

NDZ022-023-025-028>030-036>039-047>053-282200-
SOUTHEAST NORTH DAKOTA

CITY           SKY/WX    TMP DP  RH WIND       PRES   REMARKS
FARGO          CLOUDY    68  58  70 NE13      29.80R
JAMESTOWN      MOSUNNY   70  57  63 N10       29.83F
$$





USA.gov is the U.S. government's official web portal to all federal, state and local government web resources and services.